Location: Angwan Shehu
(11.2514°N, 7.4613°E)
Time: 01:46:38
(UTC+00:00)

Tiros 1 - All Passes

Search period start: 21 April 2021 00:00
Search period end: 01 May 2021 00:00
Orbit: 630 x 663 km, 48.4° (Epoch: 20 April)

Date Brightness Start Highest point End Pass type
(mag) Time Alt. Az. Time Alt. Az. Time Alt. Az.
21 Apr - 05:01:40 10° S 05:05:35 26° SE 05:09:28 10° ENE daylight
21 Apr - 06:43:39 10° WSW 06:47:37 26° NW 06:51:33 10° N daylight
21 Apr - 15:27:33 10° N 15:31:18 24° NE 15:35:05 10° ESE daylight
21 Apr - 17:09:26 10° WNW 17:13:21 27° SW 17:17:17 10° S daylight
22 Apr - 05:26:41 10° SW 05:31:26 85° SE 05:36:07 10° NE daylight
22 Apr - 15:52:40 10° NW 15:57:17 79° NE 16:01:56 10° SE daylight
23 Apr - 04:11:39 10° S 04:15:22 23° SE 04:19:04 10° ENE visible
23 Apr - 05:53:15 10° WSW 05:57:23 30° NW 06:01:29 10° NNE daylight
23 Apr - 14:37:31 10° N 14:41:05 22° NE 14:44:39 10° E daylight
23 Apr - 16:19:05 10° WNW 16:23:09 30° SW 16:27:14 10° S daylight
24 Apr - 04:36:29 10° SW 04:41:13 75° SE 04:45:54 10° NE visible
24 Apr - 06:22:52 10° NW 06:23:33 10° NW 06:24:14 10° NW daylight
24 Apr - 15:02:29 10° NW 15:07:04 69° NE 15:11:42 10° SE daylight
25 Apr - 03:21:40 10° S 03:25:10 20° SE 03:28:38 10° E visible
25 Apr - 05:02:52 10° WSW 05:07:09 34° NW 05:11:24 10° NNE daylight
25 Apr - 13:47:31 10° N 13:50:51 19° NE 13:54:11 10° E daylight
25 Apr - 15:28:45 10° WNW 15:32:57 34° SW 15:37:09 10° SSE daylight
26 Apr - 03:46:16 10° SSW 03:51:00 66° SE 03:55:41 10° NE visible
26 Apr - 05:31:35 10° WNW 05:33:17 12° NW 05:35:00 10° NNW daylight
26 Apr - 14:12:19 10° NNW 14:16:52 60° NE 14:21:26 10° SE daylight
26 Apr - 15:57:51 10° WSW 15:58:46 10° SW 15:59:42 10° SW daylight
27 Apr - 02:31:43 10° S 02:34:56 18° SE 02:38:09 10° E visible
27 Apr - 04:12:30 10° WSW 04:16:55 38° NW 04:21:19 10° NNE visible
27 Apr - 12:57:34 10° N 13:00:37 17° NE 13:03:40 10° E daylight
27 Apr - 14:38:26 10° WNW 14:42:44 39° SW 14:47:03 10° SSE daylight
28 Apr - 02:56:06 10° SSW 03:00:47 57° SE 03:05:26 10° NE visible
28 Apr - 04:40:45 10° WNW 04:43:02 13° NW 04:45:19 10° NNW visible
28 Apr - 13:22:10 10° NNW 13:26:39 52° NE 13:31:10 10° SE daylight
28 Apr - 15:06:45 10° WSW 15:08:34 12° SW 15:10:24 10° SSW daylight
29 Apr - 01:41:50 10° SSE 01:44:44 16° SE 01:47:36 10° E visible
29 Apr - 03:22:09 10° WSW 03:26:42 43° NW 03:31:11 10° NNE visible
29 Apr - 12:07:38 10° N 12:10:23 15° NE 12:13:06 10° E daylight
29 Apr - 13:48:09 10° NW 13:52:32 45° SW 13:56:57 10° SSE daylight
30 Apr - 02:05:56 10° SSW 02:10:34 50° SE 02:15:10 10° NE visible
30 Apr - 03:50:03 10° W 03:52:46 15° NW 03:55:30 10° N visible
30 Apr - 12:32:02 10° NNW 12:36:27 46° NE 12:40:51 10° ESE daylight
30 Apr - 14:16:00 10° W 14:18:22 14° SW 14:20:44 10° SSW daylight
